Starlink 33553

operational
NORAD ID: 62108 Int'l Des: 2024-220 Owner: SPXS Country: US Constellation: starlink
LEOCIRCULAR

About Starlink 33553

Description loading...

Live Position

Loading 3D Globe...

Upcoming Passes

Altitude History

Altitude vs Time

uPlot chart will show altitude changes over time

Two-Line Element Set

1 62108U 24220W 25258.01119935 .00019450 00000-0 71409-3 0 9991
2 62108 43.0022 117.6645 0001208 271.3222 88.7491 15.27597547 46324
Epoch: Sep 15, 2025 • Age: 20 hours

Current Status

Altitude 492.2 km
Velocity 7.62 km/s
Sub-Earth Point -34.75°S, 43.72°E
Launch Date Nov 25, 2024
Age 0.8 years
Type internet

Technical Details

Classification Payload
Mass 530.00 kg
Dry Mass 500.00 kg
Total Mass 530.00 kg
Length 0.30 m
Diameter 4.10 m
Span 29.00 m
Shape Box + pan
Manufacturer SPXS
Bus Type Starlink V2MO
Phase Status In Orbit
Owner/State SPXS/US

Large Constellations

Loading constellations...